Tracking 28091 objects as of 30-Sep-2023
HD Live streaming from Space Station
objects crossing your sky now

STARLINK-5966

Track STARLINK-5966 now!
10-day predictions
STARLINK-5966 is classified as:


NORAD ID: 56919
Int'l Code: 2023-083AV
Perigee: 565.3 km
Apogee: 567.0 km
Inclination: 43.0 °
Period: 95.8 minutes
Semi major axis: 6937 km
RCS: Unknown
Launch date: June 12, 2023
Source: United States (US)
Launch site: AIR FORCE EASTERN TEST RANGE (AFETR)
Your satellite tracking list
Your tracking list is empty




NASA's NSSDC Master Catalog

Two Line Element Set (TLE):
1 56919U 23083AV  23273.37805107  .00001259  00000-0  10820-3 0  9995
2 56919  43.0028 231.9356 0001238 262.2820  97.7882 15.02551521 16942
Source of the keplerian elements: AFSPC